GFSMW_850_spd_126.txt.gz
Wind_Speed
35 42 42 40 47 49 50 46 41 39 47 49 44 38 34 31 31 31 30 29 29 27 27 26 26 31 32 31 28 29 31 31 28 27 30 29 27 29 26 22 18 17 15
37 37 27 39 41 43 45 47 46 45 48 51 47 43 37 32 31 32 31 32 31 30 30 29 29 34 34 34 33 33 36 34 34 30 34 18 26 33 31 25 22 18 16
36 41 37 34 27 32 47 48 48 49 51 52 53 46 39 34 32 33 32 32 31 31 31 32 32 34 36 37 36 36 39 40 38 34 29 19 12 33 34 30 25 22 18
33 39 42 40 32 26 36 49 56 47 49 54 53 48 43 39 36 35 35 29 32 31 32 32 32 32 33 37 34 35 40 42 41 40 43 36 21 34 20 35 30 26 21
32 32 37 36 30 24 21 30 35 40 44 50 50 46 42 37 36 36 32 30 31 32 31 31 30 31 33 34 34 34 38 42 42 43 44 41 32 34 29 28 37 32 28
32 31 29 31 37 31 26 25 25 33 39 44 47 43 41 38 37 33 31 31 31 33 32 32 32 32 31 34 35 36 36 40 43 43 46 50 42 38 36 30 41 40 36
34 35 30 37 35 34 25 31 34 37 42 45 41 36 35 37 33 29 27 27 31 33 34 34 34 34 32 33 34 37 39 38 42 43 46 50 51 40 38 30 33 38 33
6 17 25 26 28 25 25 28 30 29 31 35 33 35 35 30 28 28 26 26 28 30 29 29 32 33 32 33 32 36 36 37 40 45 45 49 53 50 44 44 35 30 31
32 33 33 29 27 26 22 20 19 18 23 28 33 33 29 27 27 28 27 25 24 22 25 27 29 29 29 32 34 34 37 40 42 41 46 49 51 53 49 43 42 38 31
32 33 28 25 20 17 15 10 10 12 14 19 23 22 23 25 22 27 26 26 24 22 21 23 23 20 21 23 28 33 35 40 41 43 44 49 50 52 52 45 41 42 40
27 30 28 23 20 14 14 9 7 5 9 14 15 16 22 22 22 24 25 24 24 22 21 21 21 23 26 25 26 32 34 38 40 43 44 50 49 51 50 46 43 44 42
29 31 27 21 23 18 14 10 9 8 4 7 8 12 11 17 21 25 24 23 24 22 19 21 22 21 25 26 28 30 33 37 38 42 44 43 43 53 50 57 45 42 45
28 29 27 23 24 18 13 11 11 8 4 5 6 9 13 15 18 24 24 24 21 18 19 21 22 26 28 28 29 31 34 37 38 39 44 45 47 56 53 55 54 44 43
23 33 26 25 22 18 14 12 9 6 5 4 5 6 11 21 22 27 23 19 19 19 19 21 23 26 24 23 24 28 32 36 40 41 40 41 47 46 57 44 55 42 44
17 26 25 25 19 17 17 15 11 8 6 4 6 5 8 16 13 13 15 16 17 16 16 20 21 20 19 20 22 22 21 22 24 27 28 27 33 42 47 48 53 51 36
31 28 27 21 15 16 16 13 12 12 7 5 4 5 6 5 13 15 15 16 15 14 14 16 16 19 19 20 19 18 16 15 17 20 21 24 24 28 47 50 50 50 43
19 22 23 17 16 17 15 13 10 8 7 7 5 1 3 6 9 12 14 17 14 15 14 13 13 16 15 15 15 16 12 10 11 11 10 13 21 28 48 48 45 40 34
17 15 16 14 11 12 15 15 10 6 4 3 5 5 2 3 6 10 11 17 18 20 17 15 12 14 13 12 12 14 14 12 10 11 9 14 20 27 26 38 43 41 39
17 14 11 9 9 13 15 14 11 8 6 6 4 4 4 3 4 8 10 10 14 25 19 15 14 14 13 12 10 13 15 16 13 13 11 5 11 26 32 36 38 33 40
19 17 12 8 9 13 14 13 13 12 11 10 8 7 6 5 5 7 9 16 16 13 20 19 17 15 14 12 12 13 16 19 20 16 14 11 10 10 15 24 28 31 28
17 15 14 14 12 11 12 15 16 17 15 13 11 10 8 7 6 8 9 9 17 18 16 27 20 20 18 15 12 12 14 16 17 20 19 18 16 17 17 18 18 22 27
15 16 17 17 15 15 15 17 19 16 14 14 12 10 10 10 8 8 8 9 8 12 19 20 25 22 20 17 14 14 14 16 19 20 23 24 24 26 26 27 29 31 32
15 14 15 15 16 17 17 17 16 14 14 13 12 11 10 9 9 8 7 6 4 5 12 16 17 16 20 18 18 20 18 20 23 23 23 22 22 24 26 26 24 23 22
14 13 14 16 17 16 16 14 13 13 12 12 12 12 11 11 9 8 7 6 5 5 3 6 4 7 10 10 14 19 23 25 26 25 24 22 20 18 17 18 17 17 17
15 13 13 13 14 15 14 12 12 12 13 14 12 12 12 13 13 12 10 9 10 9 7 8 5 5 6 7 1 2 6 14 18 17 15 13 12 13 15 17 17 17 19
15 14 14 15 14 13 13 13 14 13 13 12 12 12 12 13 15 17 17 14 12 9 9 8 5 8 6 8 6 7 12 14 12 14 14 14 17 20 21 21 21 19 18

GFSMW_850_spd_129.txt.gz
Wind_Speed
49 47 44 38 27 33 36 37 40 42 48 49 47 44 41 37 34 33 34 32 31 29 28 27 26 24 25 28 30 30 29 26 27 27 24 26 26 26 25 25 26 24 19
44 43 46 44 36 29 31 37 39 44 47 52 50 50 45 41 36 34 34 31 32 31 29 28 29 28 28 29 31 32 31 29 30 32 24 17 27 28 29 28 28 27 23
42 44 48 48 43 42 32 27 29 44 51 50 51 53 48 42 35 34 34 34 34 31 31 31 30 30 30 32 32 33 33 32 33 35 26 11 14 26 30 32 31 29 25
37 41 44 46 41 42 37 32 32 38 47 54 56 54 53 49 46 41 38 36 34 32 30 30 33 32 32 32 31 32 33 35 37 38 39 26 18 17 17 37 36 31 29
33 39 43 44 35 32 23 28 31 38 46 53 54 52 52 52 48 43 39 37 34 34 32 32 34 34 35 34 33 35 36 39 38 41 43 40 31 22 25 25 40 36 32
32 37 36 36 28 25 35 31 31 33 46 50 50 51 52 52 47 42 40 38 36 34 31 33 35 36 34 35 35 33 36 37 38 42 45 45 43 34 31 28 39 46 40
33 27 29 32 35 36 35 43 29 29 39 44 47 48 47 48 47 43 38 35 35 37 36 32 34 35 34 33 31 33 33 36 38 41 42 45 45 43 37 31 28 32 38
8 10 19 24 35 33 34 34 24 27 34 36 40 43 45 39 36 36 34 28 30 32 28 31 32 33 34 34 33 31 32 33 37 39 40 41 41 44 46 40 36 25 31
15 14 15 18 24 23 25 24 21 28 29 28 30 31 31 31 30 29 29 25 21 25 24 28 32 32 34 34 33 32 32 32 34 37 40 41 40 44 44 47 44 42 30
18 18 23 28 31 31 28 25 22 24 28 32 32 31 29 28 26 27 26 25 23 23 23 24 27 28 29 31 32 32 33 32 33 35 37 39 41 40 43 45 51 49 41
18 13 20 28 28 25 23 21 17 18 17 17 22 25 24 26 27 26 26 26 24 24 25 22 22 25 24 21 25 25 27 30 34 35 38 40 40 43 46 50 50 50 44
17 12 21 28 28 28 22 20 16 11 9 10 10 11 13 17 18 23 23 25 24 23 24 22 21 21 21 22 25 27 27 29 32 34 36 40 37 43 44 50 47 46 48
22 24 35 33 30 25 21 21 18 16 11 8 7 8 10 9 17 21 24 24 25 25 26 23 23 22 22 23 25 28 28 30 30 32 33 35 36 39 43 52 50 51 54
30 26 31 34 33 25 23 20 17 13 11 8 4 5 7 11 12 16 16 19 22 24 26 25 22 19 20 23 27 30 30 30 32 35 38 38 38 39 38 49 53 53 53
26 31 27 33 32 24 24 22 18 14 10 6 6 5 6 9 11 15 18 19 26 26 20 20 19 18 23 24 20 23 24 26 28 31 36 41 43 42 39 41 44 54 50
22 21 26 30 32 28 26 21 19 17 12 10 7 5 4 6 13 12 16 22 26 20 19 18 18 20 23 19 19 19 21 23 21 21 22 24 27 29 27 26 40 50 57
25 27 27 28 28 26 24 23 18 14 12 11 9 7 3 1 4 11 14 16 16 16 17 18 16 15 15 17 18 18 18 16 15 16 18 18 18 20 23 28 34 45 50
25 24 23 23 21 22 22 20 17 13 12 11 10 8 6 4 2 4 8 15 16 19 19 18 18 14 13 14 15 14 14 14 14 15 13 13 15 17 19 22 30 46 48
20 21 19 18 18 20 20 19 16 16 12 12 11 10 8 6 5 5 6 9 16 20 20 22 18 19 15 15 16 13 15 16 17 15 14 13 11 12 14 19 32 35 36
20 22 22 18 17 19 19 19 19 18 18 17 15 13 10 9 7 7 8 8 10 11 16 26 25 21 19 18 17 16 14 17 18 18 15 12 11 6 13 26 23 25 24
20 21 21 21 20 19 18 21 20 20 18 17 15 13 12 11 9 9 9 9 9 10 13 13 18 21 22 22 18 16 15 16 18 18 17 14 11 7 3 6 18 26 20
20 20 19 19 18 18 17 18 19 17 15 14 14 13 12 12 12 10 9 9 8 8 10 12 14 19 23 24 21 17 15 16 17 16 15 16 14 12 15 15 18 16 17
18 17 16 15 16 17 17 17 17 15 15 14 13 13 12 11 11 11 10 9 9 7 4 5 7 9 7 15 20 18 18 20 20 18 19 17 17 19 20 20 19 17 17
18 17 15 16 16 16 16 16 15 15 15 14 13 12 12 12 11 9 9 10 9 9 6 2 1 2 5 3 9 9 20 24 23 23 21 20 18 17 16 18 17 17 19
17 16 16 16 15 15 15 15 15 15 13 13 13 13 14 14 15 14 13 11 11 11 9 8 6 4 2 2 1 4 6 8 9 10 11 9 10 11 10 11 11 11 13
15 14 15 16 16 16 16 14 14 14 14 14 13 13 12 13 15 17 18 14 13 9 7 6 6 6 4 4 3 1 6 8 6 10 9 9 12 13 16 16 16 17 18

GFSMW_850_spd_132.txt.gz
Wind_Speed
57 52 46 44 44 37 31 38 38 40 42 43 50 47 44 41 40 38 37 35 34 33 33 31 28 25 26 25 26 28 28 27 24 21 20 21 21 21 21 19 24 32 25
49 50 42 38 39 41 33 33 35 37 41 44 43 50 46 45 42 40 38 37 35 34 34 33 32 30 27 27 28 31 31 29 27 26 22 14 22 24 25 24 24 21 23
46 49 49 42 41 42 35 33 33 33 40 41 44 48 47 45 44 42 39 38 36 36 36 34 33 32 30 29 29 31 33 32 31 29 22 10 13 19 27 29 28 27 26
44 43 45 45 41 39 33 32 29 34 31 40 47 50 52 52 51 48 45 38 36 36 36 35 34 33 32 32 31 31 33 33 32 31 33 27 15 13 10 27 32 30 30
42 43 42 45 42 37 37 31 27 26 27 37 42 52 55 51 50 52 47 42 38 35 35 34 34 32 34 34 32 32 33 34 32 32 32 36 30 22 20 19 26 34 36
35 36 39 42 43 34 37 30 23 16 13 30 36 50 56 53 52 49 49 46 42 35 34 34 33 33 33 35 32 30 30 30 32 34 36 35 38 34 28 27 28 30 39
26 19 24 32 30 22 24 25 26 27 25 20 35 47 49 51 52 54 52 49 42 37 36 36 37 34 33 35 33 35 34 34 34 36 36 36 38 39 37 35 28 25 34
25 22 19 15 3 13 22 25 22 33 28 24 36 45 44 45 48 51 49 50 43 36 36 36 37 32 31 34 34 34 33 34 33 35 36 34 36 37 39 41 36 28 28
31 34 32 21 14 7 8 20 25 14 21 24 32 37 36 41 46 44 41 43 36 27 27 33 33 31 30 31 32 33 33 31 31 31 33 34 35 35 37 38 41 36 23
37 36 37 30 24 16 17 14 21 13 18 14 25 29 27 28 27 32 32 34 28 22 20 25 31 30 29 30 32 33 32 32 30 30 29 32 33 34 37 38 38 41 41
38 32 34 31 27 27 22 28 19 9 16 19 21 17 17 15 18 23 29 29 26 24 25 28 29 26 27 27 28 31 30 31 29 27 31 30 30 33 35 36 37 38 39
40 38 30 33 30 31 32 31 27 16 8 14 20 22 17 12 17 28 26 30 27 26 27 27 27 25 23 25 26 25 28 26 25 28 29 31 31 33 34 36 37 39 38
40 41 38 38 32 33 33 31 25 24 14 10 15 19 21 22 26 27 32 30 25 22 24 25 27 23 20 19 19 21 21 24 27 27 27 29 30 35 35 36 37 37 40
39 38 34 36 43 39 32 32 26 20 15 11 8 13 19 20 24 27 23 21 20 19 21 22 27 25 22 21 18 22 24 25 29 28 29 29 29 31 33 31 34 35 40
37 39 41 43 47 41 36 31 28 22 19 16 11 10 8 8 11 12 11 11 11 13 17 22 26 24 22 22 20 22 23 26 30 30 30 32 34 37 39 38 35 33 39
35 38 38 40 42 40 34 28 24 24 21 18 17 12 8 6 7 9 13 15 13 14 16 17 21 20 22 21 20 19 19 22 23 26 28 29 28 30 33 36 37 35 38
30 36 37 36 35 34 31 28 24 19 19 17 15 13 11 8 5 6 6 10 16 17 19 18 19 20 19 18 19 18 20 20 22 23 22 20 20 20 22 25 29 34 34
27 31 33 32 30 28 28 24 22 21 19 17 16 13 12 9 8 4 2 4 10 10 14 19 17 17 16 16 17 18 16 18 19 19 17 16 17 17 20 23 26 27 31
25 27 28 27 24 24 25 24 23 22 20 20 19 17 15 11 9 8 6 5 3 7 9 19 20 19 19 18 19 18 17 17 17 18 16 15 16 16 17 19 20 20 21
23 26 25 24 25 25 24 25 25 24 25 23 21 19 17 15 13 11 8 6 4 5 8 12 15 20 24 21 21 19 19 18 18 19 18 17 15 16 14 16 13 15 16
22 23 23 24 24 23 23 24 24 25 23 20 19 19 18 17 16 14 12 10 7 5 5 8 11 15 22 25 23 21 22 20 18 18 19 18 17 14 8 7 6 14 16
22 22 22 22 22 22 22 23 23 22 20 19 18 18 16 16 15 14 13 10 10 7 5 5 6 7 10 16 22 24 23 22 19 18 17 18 17 13 10 9 7 9 10
21 21 21 19 20 21 22 21 22 20 19 18 17 17 16 16 15 13 12 12 11 10 7 5 4 3 5 7 14 22 25 23 20 19 18 18 17 15 14 14 14 14 14
20 21 21 21 21 20 20 20 19 18 19 18 18 17 17 17 15 13 12 11 12 14 13 10 8 7 5 5 5 3 6 10 14 18 18 18 17 16 15 15 15 15 16
20 20 21 22 22 22 20 18 18 17 17 16 16 17 17 18 20 21 19 16 15 14 13 14 12 11 10 11 11 9 4 2 7 9 10 9 9 10 12 13 13 13 14
19 19 19 20 20 21 22 22 20 17 16 16 17 16 16 17 17 18 18 17 15 13 13 12 11 13 11 11 10 10 9 6 2 3 4 7 9 9 10 12 13 13 15

GFSMW_850_spd_135.txt.gz
Wind_Speed
42 43 48 48 46 40 39 40 40 35 32 37 46 48 52 51 46 40 40 40 38 37 36 34 31 28 28 28 26 27 28 28 25 22 20 19 18 20 19 20 21 19 25
45 45 41 44 49 46 39 38 39 37 33 36 42 44 46 52 48 42 41 40 39 40 39 38 36 33 30 30 30 30 32 31 29 27 20 12 19 22 22 22 22 19 23
46 56 49 41 41 46 43 43 43 39 34 32 38 40 39 43 49 47 43 40 41 42 40 40 39 37 34 33 32 32 34 34 32 32 18 9 11 17 26 24 24 24 24
55 56 56 43 43 47 44 41 43 40 36 33 37 39 46 47 53 49 43 43 43 41 41 41 39 39 38 36 33 32 34 35 36 33 30 24 12 9 8 16 24 26 27
53 58 45 43 39 43 39 38 40 39 33 34 37 42 46 45 45 49 47 46 45 41 41 41 40 41 40 38 36 33 34 36 35 36 32 31 26 21 17 12 15 19 24
50 44 36 34 22 32 35 35 36 38 31 34 38 40 45 45 45 46 48 48 48 44 43 42 41 41 39 38 36 32 31 34 36 34 33 31 25 24 25 23 20 24 23
45 42 44 45 35 19 33 31 36 34 31 34 37 40 42 43 47 47 48 48 50 48 47 43 43 42 39 36 32 34 34 33 34 34 34 33 29 23 27 25 23 24 25
44 43 48 47 40 23 8 21 26 28 31 30 25 23 32 42 47 43 46 49 49 50 49 46 44 42 38 34 33 33 34 33 31 32 30 31 32 32 30 30 25 26 29
43 42 47 49 47 26 15 6 15 26 33 29 25 21 26 35 43 40 42 47 46 45 50 45 44 41 36 34 31 30 33 35 35 36 34 33 31 33 34 33 30 25 22
42 49 47 50 44 35 17 12 10 11 18 22 24 20 24 32 36 34 39 39 38 35 40 43 43 39 33 33 30 30 31 35 35 34 32 32 30 30 31 30 32 33 32
44 42 48 50 46 40 27 21 24 14 16 18 19 13 16 24 29 31 33 35 35 33 36 36 34 35 31 30 30 31 30 32 33 32 31 30 28 27 30 30 31 33 32
43 45 50 49 52 43 39 28 26 25 18 11 12 11 14 15 19 19 22 19 19 17 23 28 24 27 28 29 29 30 30 31 32 31 31 29 26 28 29 31 32 33 32
42 46 50 47 48 46 39 36 31 24 19 14 12 18 16 9 7 8 9 9 13 14 13 20 23 29 30 28 26 27 27 26 26 27 26 26 25 29 31 31 30 31 32
37 43 46 46 46 47 41 38 36 29 26 11 17 15 11 11 15 12 13 14 11 13 17 30 31 34 34 30 27 22 23 22 21 21 22 24 27 28 29 29 30 31 33
34 40 43 43 44 45 43 39 35 31 21 8 11 22 15 13 15 18 20 19 17 23 33 31 30 29 32 29 28 25 23 22 24 24 24 28 29 28 27 27 28 28 26
31 36 39 39 37 38 41 37 33 29 24 21 21 20 17 12 8 7 7 11 17 24 23 23 22 24 29 29 26 21 21 21 22 24 26 29 30 30 31 33 35 37 40
31 31 35 36 36 34 33 32 30 26 23 21 20 18 16 13 11 7 4 7 13 14 14 13 14 20 23 24 22 21 20 20 20 21 22 24 26 29 30 29 27 26 31
30 30 29 28 29 29 30 29 28 27 25 23 21 18 17 15 12 11 8 6 8 10 14 16 17 17 19 18 16 19 20 21 19 20 22 24 24 22 20 20 21 23 29
25 25 25 24 25 28 27 26 27 27 28 28 26 22 17 14 12 9 8 7 4 5 9 12 17 15 16 17 18 18 19 19 18 16 18 20 19 17 16 18 19 22 26
23 24 23 22 24 27 26 27 27 27 27 26 23 21 19 17 14 13 10 7 5 2 2 5 10 17 18 19 20 19 21 21 17 18 17 16 18 17 15 16 18 20 14
24 23 21 21 24 25 25 26 27 29 26 23 21 20 19 18 16 14 11 10 6 3 2 2 4 8 13 18 21 23 23 21 19 18 18 19 18 19 18 16 15 13 10
24 23 21 21 22 23 23 25 26 25 23 21 21 20 19 17 15 14 13 12 10 8 6 4 2 2 3 9 12 20 25 23 24 24 22 21 21 18 18 16 14 11 10
21 21 20 21 23 23 23 22 22 21 21 20 20 21 20 17 15 13 13 13 14 13 12 9 6 5 4 3 5 11 14 22 21 25 24 21 19 18 17 16 15 14 12
20 19 20 20 23 24 22 20 20 19 19 18 18 19 21 21 18 16 15 15 17 17 16 15 14 11 9 7 6 6 4 4 11 13 13 13 12 12 13 15 15 15 14
18 18 18 20 22 23 22 22 20 19 18 18 18 18 19 20 20 21 20 18 19 16 15 16 13 12 12 14 13 11 8 7 1 3 4 6 7 7 8 9 10 11 13
17 16 16 18 19 20 20 19 21 20 19 18 18 18 18 18 18 18 18 19 18 15 13 13 12 13 13 12 11 10 8 7 4 1 1 0 1 3 4 6 8 9 9

GFSMW_850_spd_141.txt.gz
Wind_Speed
25 27 31 34 37 37 37 42 41 36 37 40 39 44 40 45 44 43 43 42 44 45 44 37 34 34 30 27 27 27 24 22 20 18 16 18 20 20 20 17 19 18 19
27 30 33 37 36 39 37 38 42 39 36 40 43 40 45 44 47 46 46 46 50 46 49 45 39 39 33 30 30 27 25 24 25 24 14 13 17 21 23 19 19 19 19
32 35 37 38 39 41 38 40 41 40 40 35 41 41 42 43 47 48 47 47 50 46 48 49 43 44 38 37 37 32 28 31 27 29 16 11 11 15 18 21 20 20 20
32 35 37 41 41 43 40 41 40 40 41 40 36 45 41 45 46 46 48 46 49 46 47 47 48 49 42 41 39 35 32 29 34 30 26 19 9 11 7 14 21 24 22
31 36 38 39 38 38 42 41 39 39 38 39 39 46 43 43 44 47 49 46 45 47 44 46 47 50 47 45 43 38 36 37 30 31 29 28 21 15 15 10 13 21 28
32 34 35 37 40 40 41 43 34 35 35 34 38 41 45 42 42 43 44 45 41 47 42 46 45 48 49 46 46 42 41 40 34 24 27 27 27 24 19 16 14 12 16
32 37 40 41 45 49 50 45 34 34 27 26 34 42 41 53 39 45 46 47 40 35 39 44 48 48 51 48 45 45 43 42 36 33 29 29 25 25 22 19 16 14 12
34 37 40 41 45 49 50 43 36 32 23 21 31 37 41 45 40 38 43 50 48 20 36 43 48 50 52 50 47 45 43 42 40 36 33 27 28 29 26 22 19 16 18
33 36 40 41 45 50 49 42 41 32 28 21 18 33 36 40 38 42 43 46 53 55 48 47 49 49 47 46 46 47 46 45 41 40 36 33 29 28 27 28 25 22 19
33 36 38 43 45 49 48 42 42 37 30 21 5 16 32 34 40 40 45 39 48 55 53 48 50 49 46 42 42 43 42 42 42 38 37 36 35 31 32 31 27 25 21
32 35 37 45 44 49 49 45 44 40 33 26 16 6 17 29 37 34 33 49 48 46 39 38 41 42 41 43 42 43 40 38 37 36 36 34 31 32 32 29 28 31 29
31 32 35 43 46 49 50 48 46 43 37 31 22 15 7 12 23 27 25 12 30 27 26 26 29 29 32 40 44 43 39 38 37 38 36 34 32 37 36 33 33 32 33
30 33 41 44 46 47 49 48 46 44 39 34 25 23 17 6 4 7 15 17 15 15 21 26 25 20 30 36 40 42 40 41 37 37 35 32 34 37 40 39 36 34 33
29 31 39 42 41 42 45 45 45 42 42 37 29 23 19 15 13 10 2 3 11 15 21 23 19 19 28 35 37 40 40 41 34 32 34 28 33 36 38 38 34 32 29
29 31 34 39 38 39 41 41 42 39 38 36 31 26 19 15 11 7 5 7 6 10 9 10 15 24 30 32 35 38 34 33 32 30 28 29 29 36 33 31 32 30 30
26 27 29 33 36 37 37 36 37 36 35 31 31 27 20 17 13 7 3 3 1 3 6 7 7 13 19 18 20 24 27 30 29 27 22 25 30 33 28 24 25 24 22
23 25 27 28 29 33 32 35 36 31 31 29 26 27 23 22 17 8 2 5 5 7 10 10 13 18 19 21 22 20 20 24 30 32 31 33 29 26 22 24 27 28 28
22 22 23 25 25 27 28 29 33 29 27 27 27 24 21 25 19 12 4 7 3 6 7 14 17 13 18 20 23 19 20 21 26 28 23 26 29 23 20 21 23 25 27
19 19 20 20 23 24 24 23 25 27 27 27 27 25 20 23 22 18 11 11 6 5 8 11 13 11 14 14 19 24 23 24 35 28 22 24 22 18 20 22 23 25 25
17 19 19 19 20 22 22 22 23 23 26 27 25 22 22 20 20 18 16 14 15 11 8 5 5 17 6 12 16 20 22 26 16 15 22 19 20 19 18 18 19 20 20
17 17 17 19 21 22 22 22 23 25 25 23 22 22 23 22 19 17 16 14 13 10 10 10 7 7 3 2 14 15 14 18 23 20 19 20 21 19 16 15 17 19 19
17 17 17 18 20 21 22 22 24 26 24 23 23 23 22 22 21 19 16 16 14 12 12 12 12 12 10 7 3 8 11 13 14 17 18 17 16 16 15 16 18 20 19
16 16 16 16 18 20 22 22 23 24 24 22 21 21 21 22 21 20 19 16 15 18 17 15 15 14 12 9 6 2 6 9 11 14 15 17 17 16 15 16 18 18 15
15 16 16 16 17 19 20 21 22 22 20 20 20 18 20 20 22 23 20 19 19 19 17 18 17 16 14 11 10 9 6 6 4 6 7 7 8 7 10 9 8 11 12
13 14 15 15 16 17 17 19 21 22 20 17 18 18 18 17 18 20 24 24 22 21 19 18 17 16 15 16 13 11 9 8 6 4 3 3 4 3 4 3 3 3 3
13 13 14 15 16 17 17 18 18 18 19 18 16 18 16 17 15 13 16 20 23 19 16 14 13 14 14 11 10 10 8 8 8 7 8 9 7 6 6 5 4 4 4